Location: Naloco
(16.5478°S, 37.1017°E)
Time: 01:55:22
(UTC+00:00)

SWIFT - Pass Details

Date: 13 August 2020
Orbit: 545 x 560 km, 20.6° (Epoch: 23 September)

Event Time Altitude Azimuth Distance (km) Brightness Sun altitude
Rises 17:02:46 0° 260° (W) 2,737 7.1 -24.4°
Reaches altitude 10° 17:05:07 10° 254° (WSW) 1,841 5.8 -24.9°
Enters shadow 17:08:23 41° 217° (SW) 819 3.3 -25.7°
